Select NOAA-NWS Forecast Office Text Products

(Product availability varies with seasons, forecast office, and weather.)

Regional Weather Roundup for Pendleton, OR

To Select Another NWS Office Click on Map or Choose from List

County Warning Area MAP
Select Forecast Office:   Select Product:  
000
ASUS46 KPDT 180425
RWRPDT
PENDLETON REGIONAL WEATHER ROUNDUP
NATIONAL WEATHER SERVICE PENDLETON OREGON
900 PM PDT SAT APR 17 2021

NOTE: FAIR INDICATES FEW OR NO CLOUDS BELOW 12,000 FEET WITH NO
SIGNIFICANT WEATHER AND/OR OBSTRUCTIONS TO VISIBILITY.

# INDICATES UNOFFICIAL STATION AND DATA

WAZ520-180510-
EAST SLOPES OF WASHINGTON CASCADES

CITY            SKY/WX      TMP DP  RH  WIND    PRES   REMARKS
#BULLFROG       N/A         52  38  59  CALM    N/A
#EASTON DOT     N/A         48  35  60  CALM    N/A
#ELK HTS DOT    N/A         57  57  100 SW1     N/A
#GLENWOOD       N/A         53  37  54  CALM    30.17R
#NELSON 3SW     N/A         41  33  73  SW1     30.40R
#NILE           N/A         55  33  43  CALM    29.51R
#TROUT LAKE 1NE N/A         54  37  52  CALM    30.17R
#TROUT LAKE 1E  N/A         48  39  71  CALM    30.22R
$$

WAZ521-180510-
SIMCOE HIGHLANDS

CITY            SKY/WX      TMP DP  RH  WIND    PRES   REMARKS
#SATUS PASS DOT N/A         46  31  56  CALM    N/A
#CENTERVILLE 1SWN/A         56  32  40  CALM    30.11R
#LYLE 6NE       N/A         67  30  25  CALM    30.13R
#PITT 4SE       N/A         57  28  33  CALM    30.16R
$$

WAZ026-180510-
KITTITAS VALLEY

CITY            SKY/WX      TMP DP  RH  WIND    PRES   REMARKS
ELLENSBURG AP   FAIR        56  30  37  NE8     30.17R
#ELLENSBURG CWU N/A         66  34  30  CALM    30.09R
#ELLENSBURG 3NE N/A         49  35  58  N5      28.23R
#ELLENSBURG 1E  N/A         62  32  32  CALM    30.17R
#KITTITAS 3S    N/A         55  32  41  NE5     30.14R
#MANASTASH RDG  N/A         63  21  20  S8      N/A
#ROCKY CYN DOT  N/A         59  33  37  N1      N/A
#RYEGRASS DOT   N/A         63  26  24  S6      N/A
$$

WAZ027-180510-
YAKIMA VALLEY

CITY            SKY/WX      TMP DP  RH  WIND    PRES   REMARKS
SUNNYSIDE AP    FAIR        55  32  41  CALM    30.16R
YAKIMA AIRPORT  FAIR        59  26  28  W7      30.16R
YAKIMA-VAGABOND FAIR        64  20  18  CALM    30.15R
#MABTON         N/A         56  29  35  S1      30.14R
#NACHES 2SW     N/A         59  31  34  E1      30.16S
#OUTLOOK DOT    N/A         60  39  46  CALM    N/A
#PARKER DOT     N/A         68  28  22  CALM    N/A
#TERRACE HTS    N/A         61  29  30  CALM    30.11R
#TOPPENISH      N/A         68  35  29  CALM    30.05R
#I82 S UMTANUM RN/A         59  25  27  CALM    N/A
#UNION GAP DOT  N/A         61  33  35  E3      N/A
#ZILLAH DOT     N/A         62  29  28  NE5     N/A
$$

WAZ028-180510-
LOWER COLUMBIA BASIN...WASHINGTON

CITY            SKY/WX      TMP DP  RH  WIND    PRES   REMARKS
PASCO           FAIR        59  33  37  CALM    30.14R
PROSSER AWOS    N/A         55  30  38  N6      30.18R
RICHLAND AWOS   FAIR        62  29  28  CALM    30.14R
#BASIN CITY 5SW N/A         65  33  30  CALM    30.13R
#BENTON CITY    N/A         60  28  29  CALM    30.03R
#CONNELL 5N     N/A         58  38  47  CALM    30.13R
#CONNELL 5NW    N/A         62  41  46  CALM    30.09R
#ELTOPIA 6NW    N/A         67  33  28  CALM    29.12R
#KAHLOTUS       N/A         68  34  28  N1      30.13R
#KENNEWICK 3S   N/A         66  28  24  CALM    30.13R
#PROSSER DOT    N/A         62  31  31  CALM    N/A
#SAGEMOOR 2W    N/A         68  31  25  S1      29.99R
#TOUCHET 2S     N/A         55  44  66  CALM    30.11R
$$

WAZ029-180510-
FOOTHILLS OF THE BLUES...WASHINGTON

CITY            SKY/WX      TMP DP  RH  WIND    PRES   REMARKS
WALLA WALLA AP  FAIR        59  33  37  E7      30.16R
#CLYDE 6NW      N/A         52  30  43  CALM    30.12R
#DELANEY DOT    N/A         60  28  29  SE7     N/A
#LOWDEN 2SE     N/A         57  39  51  CALM    30.11R
#PRESCOTT       N/A         52  39  61  CALM    30.13R
#WHITMAN MISSIONN/A         60  40  47  E3      30.12R
$$

WAZ030-180510-
BLUE MOUNTAINS...WASHINGTON

CITY            SKY/WX      TMP DP  RH  WIND    PRES   REMARKS
$$

ORZ009-041-WAZ024-180510-
COLUMBIA RIVER GORGE

CITY            SKY/WX      TMP DP  RH  WIND    PRES   REMARKS
HOOD RIVER AP   FAIR        63  30  29  MISG    30.16R
THE DALLES AP   FAIR        63  33  32  CALM    30.13R
#CELILO DOT     N/A         68  33  27  CALM    N/A
#LYLE           N/A         69  34  27  N3      30.13R
#MARYHILL       N/A         67  23  19  CALM    N/A
#RUFUS DOT      N/A         64  34  33  S10     N/A

$$

ORZ510-180510-
NORTH CENTRAL OREGON

CITY            SKY/WX      TMP DP  RH  WIND    PRES   REMARKS
#ANTELOPE       N/A         55  29  37  CALM    30.05R
#COW CYN RST AREN/A         60  22  23  N8      N/A
#DUFUR          N/A         50  32  50  W1      30.12R
#DUFUR 9E       N/A         63  26  24  N3      30.19R
#GRASS VALLEY 1SN/A         57  25  29  CALM    30.10R
#KENT DOT       N/A         57  20  23  NE3     N/A
#SHANIKO 5WSW   N/A         56  21  25  N13     N/A
#WAPANITIA AIRPON/A         57  30  35  CALM    30.17R
#WASCO DOT      N/A         47  35  63  E1      N/A
#WASCO 5NE      N/A         50  23  34  CALM    30.13R
$$

ORZ511-180510-
CENTRAL OREGON

CITY            SKY/WX      TMP DP  RH  WIND    PRES   REMARKS
BEND AIRPORT    FAIR        55  23  29  CALM    30.23R
MADRAS AIRPORT  FAIR        54  27  35  NE7     30.22R
PRINEVILLE AP   FAIR        59  25  27  N8      30.22R
REDMOND AIRPORT FAIR        49  21  33  CALM    30.20R
#ASHWOOD SCHOOL N/A         60  27  28  CALM    30.14R
#BEND-KIM LN    N/A         54  27  35  NW3     30.12R
#CULVER         N/A         59  30  33  CALM    29.64R
#PRINEVILLE     N/A         60  28  29  CALM    30.23R
#WARM SPRINGS   N/A         60  32  35  CALM    29.99R

$$


ORZ509-180510-
EAST SLOPES OF OREGON CASCADES

CITY            SKY/WX      TMP DP  RH  WIND    PRES   REMARKS
SISTERS AWOS    N/A         59  28  30  CALM    30.17R
SUNRIVER AWOS   FAIR        45  28  51  N5      30.29R
#BLUE BOX PASS  N/A         53  N/A N/A CALM    N/A
#LAVA BUTTE DOT N/A         52  20  28  CALM    N/A
#SISTERS ODOT   N/A         50  25  37  CALM    N/A
#TUMALO 3W      N/A         59  24  26  W1      30.02R
#WANOGA BUTTE D N/A         47  16  28  N3      N/A

$$

ORZ044-180510-
LOWER COLUMBIA BASIN...OREGON

CITY            SKY/WX      TMP DP  RH  WIND    PRES   REMARKS
HERMISTON       FAIR        58  31  36  SE5     30.15R
#BOARDMAN SCHOOLN/A         62  34  35  CALM    30.08R
#ECHO 8SW       N/A         51  41  68  S5      30.15R
#I-84 EX 198 DOTN/A         60  35  39  N6      N/A
#IONE SCHOOL    N/A         56  33  42  CALM    30.16R
#UMATILLA       N/A         67  30  25  CALM    30.05R
$$

ORZ507-180510-
NORTHERN FOOTHILLS OF THE BLUES

CITY            SKY/WX      TMP DP  RH  WIND    PRES   REMARKS
PENDLETON AIRPT FAIR        57  28  33  VRB6    30.18R
#CAYUSE         N/A         60  37  42  E3      30.14R
#HELIX SCHOOL   N/A         50  32  50  CALM    30.16R
#HELIX 3N       N/A         55  30  38  CALM    30.18R
#HOLDMAN 5SE    N/A         52  32  46  CALM    30.16R
#HOLDMAN 6E     N/A         59  33  37  CALM    29.94R
#M-FREEWATER 5SEN/A         58  37  45  CALM    30.16R
#PDT SUNRIDGE   N/A         57  37  47  CALM    30.13R
#PENDLETON 6SE  N/A         55  36  49  E6      30.11R
#TUTUILLA       N/A         49  35  58  CALM    30.20R
#UMAPINE 2E     N/A         52  41  66  CALM    30.13R
#WESTON SCHOOL  N/A         55  29  37  CALM    29.86R

$$

ORZ508-180510-
SOUTHERN FOOTHILLS OF THE BLUES

CITY            SKY/WX      TMP DP  RH  WIND    PRES   REMARKS
#HEPPNER EOC    N/A         57  33  40  CALM    30.10R
#HEPPNER 4NE    N/A         52  31  44  E2      30.16R
#OLEX 4N        N/A         63  28  26  CALM    30.14R
#RUGGS 2SW      N/A         55  29  37  SW6     30.22R

$$

ORZ502-503-180510-
BLUE MOUNTAINS

CITY            SKY/WX      TMP DP  RH  WIND    PRES   REMARKS
MEACHAM         FAIR        45  30  55  CALM    30.25R
#BATTLE MTN DOT N/A         50  26  39  N1      N/A
#LADD CYN SMT   N/A         42  30  62  CALM    N/A
#LADD CREEK ODOTN/A         49  30  48  NW5     N/A
#N POWDER DOT   N/A         47  31  53  N2      N/A
#TOLLGATE       N/A         43  27  53  CALM    30.26R
#TROY SCHOOL    N/A         56  34  43  CALM    30.01R
#WESTON 4E      N/A         57  31  37  CALM    30.11R
$$

ORZ505-180510-
JOHN DAY BASIN

CITY            SKY/WX      TMP DP  RH  WIND    PRES   REMARKS
JOHN DAY        FAIR        58  25  28  CALM    30.23R
#DAYVILLE SCHOOLN/A         60  19  20  CALM    30.11R
#MITCHELL 8NW   N/A         61  27  27  CALM    30.18R
#MONUMENT HS    N/A         64  31  29  CALM    30.02R
#MT. VERNON 5SE N/A         51  26  37  CALM    30.24R
#SPRAY SCHOOL   N/A         62  N/A N/A N1      N/A
$$

ORZ506-180510-
OCHOCO AND JOHN DAY HIGHLANDS

CITY            SKY/WX      TMP DP  RH  WIND    PRES   REMARKS
#BUCK CREEK DOT N/A         47  14  26  E1      N/A
#HORSE RIDGE DO N/A         57  19  22  N9      N/A
#KEYES SMT DOT  N/A         51  23  33  N6      N/A
#PAULINA ODOT   N/A         57  22  25  CALM    N/A
#PRAIRIE CITY   N/A         48  30  49  NE1     30.16R
#SENECA 9NW     N/A         44  27  51  CALM    30.21R
$$

ORZ049-180510-
GRANDE RONDE VALLEY

CITY            SKY/WX      TMP DP  RH  WIND    PRES   REMARKS
LA GRANDE       FAIR        49  29  46  N7      30.22R
#COVE SCHOOL    N/A         51  30  44  E1      30.19R
#COVE 6NW       N/A         53  32  45  CALM    30.18R
#ELGIN 1E       N/A         53  31  43  CALM    N/A
#IMBLER SCHOOL  N/A         58  31  36  CALM    30.15R
#ISLAND CITY 4N N/A         61  43  51  CALM    30.11R
#LADD CYN DOT   N/A         53  28  38  SE16    N/A
#UNION 1S       N/A         57  30  35  CALM    30.18R
$$

ORZ050-180510-
WALLOWA COUNTY

CITY            SKY/WX      TMP DP  RH  WIND    PRES   REMARKS
JOSEPH AIRPORT  FAIR        47  23  38  S10     30.26R
#ENTERPRISE HS  N/A         51  30  44  CALM    30.11R
#IMNAHA SCHOOL  N/A         55  29  37  CALM    30.19R
#JOSEPH 3N      N/A         47  21  35  CALM    30.24R
#LOSTINE        N/A         51  28  41  E3      30.01R
#LOSTINE 3SE    N/A         50  26  39  SW3     30.30R



$$

Previous Regional Weather Roundups may be found at
NWS Pendleton, OR (PDT) Office Regional Weather Roundups.
(Click 'Previous Version' there to view past versions successively.
Some may differ only in time posted.)

San Juan, PRHonolulu, HI Lake Charles, LA Pueblo, CO Corpus Christi, TX St. Louis, MO Reno, NV Raleigh, NC  Newport/Morehead City, NC Dodge City, KS Houston/Galveston, TX San Joaquin Valley/Hanford, CA Louisville, KY Fort Worth, TX Pittsburgh, PA Austin/San Antonio, TX Sacramento, CA Jackson, MS Phoenix, AZ Northern Indiana, IN Flagstaff, AZ Tallahassee, FL Springfield, MO Riverton, WY Blacksburg, VA Sioux Falls, SD El Paso Area, NM Columbia, SC Wilmington, NC Greenville-Spartanburg, SC Eureka, CA Midland/Odessa, TX Tucson, AZ Goodland, KS Huntsville, AL Amarillo, TX Norman, OK Lubbock, TX Marquette, MI Little Rock, AR Pendleton, OR Missoula, MT Binghamton, NY Boston, MA Green Bay, WI Billings, MT Baltimore/Washington San Diego, CA Tampa Bay, FL Morristown, TN Twin Cities, MN Brownsville, TX Portland, OR Des Moines, IA Memphis, TN Pocatello, ID San Angelo, TX Jacksonville, FL Aberdeen, SD Quad Cities, IA/IL Charleston, SC New Orleans/Baton Rouge, LA Peachtree City, GA Shreveport, LA Grand Rapids, MI Medford, OR Albany, NY Wichita, KS Gray/Portland, ME Spokane, WA Boise, ID Denver/Boulder, CO Great Falls, MT Caribou, ME Key West, FL Miami-South Florida, FL New York City/Upton, NY Melbourne, FL Hastings, NE Paducah, KY Glasgow, MT Bismarck, ND Charleston WV Omaha/Valley, NE Buffalo, NY Jackson, KY Kansas City/Pleasant Hill, MO Gaylord, MI Cheyenne, WY Grand Forks, ND Detroit/Pontiac, MI Central Illinois, IL Burlington, VT Salt Lake City, UT Topeka, KS Nashville, TN Milwaukee/Sullivan, WI Albuquerque, NM Las Vegas, NV Wakefield, VA La Crosse, WI Birmingham, AL Los Angeles/Oxnard, CA Chicago, IL Seattle, WA Rapid City, SD Indianapolis, IN Philadelphia/Mount Holly, PA Mobile/Pensacola State College, PA Cleveland, OH Elko, NV Wilmington, OH Grand Junction, CO North Platte, NE Tulsa, OK San Francisco/Monterey Bay Area, CA Duluth, MN Anchorage, AK Fairbanks, AK Juneau, AK Tiyan, GU

Products Courtesy of NOAA-NWS
NWS Information Parsing Script by Ken True at Saratoga Weather - WFO and Products Scripts by SE Lincoln Weather.
Mapping by Curly at Michiana Weather and by Tom at My Mishawaka Weather.

//